Lid_Strength_Index
10 12 14 13 12 13 15 16 16 16 14 15 14 15 14 12 12 13 12 11 11 9 8 7 3 3 2 2 2 3 3 4 4 4 2 2 3 2 2 1 1 0 0 1
11 14 10 10 11 12 14 16 17 14 13 14 15 15 13 12 12 12 12 12 11 10 9 7 4 3 3 3 2 3 3 4 3 3 3 2 2 3 2 2 2 1 1 0
12 11 8 11 12 13 14 16 16 15 13 13 14 15 14 12 11 11 11 11 11 11 10 5 5 4 3 3 2 2 3 4 3 4 4 4 3 3 3 3 3 2 0 -0
11 8 10 11 13 13 16 13 13 13 15 18 14 20 16 13 12 11 11 11 11 11 11 5 5 4 3 3 2 2 2 4 4 3 3 4 4 4 3 3 2 2 1 0
13 11 11 12 12 12 14 11 12 12 15 16 16 19 17 14 13 12 11 11 11 11 11 5 5 4 3 3 2 2 4 4 4 3 3 3 3 2 2 2 2 2 2 1
10 7 8 10 9 10 10 11 12 13 15 19 16 18 18 15 13 12 11 10 10 10 10 6 4 4 3 4 5 5 4 4 4 3 3 2 2 2 2 2 2 2 2 2
12 11 8 8 11 9 10 14 19 19 19 20 16 18 17 13 10 9 10 9 10 9 10 6 5 5 4 4 4 4 4 5 3 3 3 2 2 3 4 4 5 5 5 5
16 17 11 8 10 11 12 13 19 22 21 21 15 19 16 10 9 8 8 7 7 7 6 6 5 4 4 3 4 4 6 5 5 5 6 6 6 6 7 5 6 5 6 5
16 16 9 9 8 9 11 13 13 17 17 19 17 15 11 10 10 9 9 8 8 7 6 5 5 6 6 7 7 7 6 6 6 6 6 5 6 6 7 6 6 6 6 5
13 16 11 9 8 8 10 10 15 15 20 21 18 16 16 14 12 10 9 9 8 7 6 6 6 6 8 7 7 7 6 6 5 5 5 5 6 6 6 6 6 6 6 5
11 14 14 11 13 13 12 12 12 14 17 20 21 19 13 12 10 10 9 8 7 7 7 8 9 8 8 8 7 6 6 6 6 6 6 7 6 7 6 7 7 6 6 6
11 13 17 15 11 10 10 12 13 16 18 17 17 18 11 10 9 9 9 8 8 8 9 8 9 9 9 8 8 7 7 7 7 7 7 7 7 8 8 8 8 7 7 7
11 15 18 17 14 11 13 12 12 14 14 16 19 18 10 9 9 8 8 8 8 8 9 9 9 9 9 8 8 8 8 8 8 8 8 8 8 9 9 9 8 8 8 7
9 13 15 19 17 13 15 12 11 13 17 16 16 16 13 11 10 9 9 9 9 8 8 8 9 9 8 8 9 8 9 9 9 9 9 9 9 9 9 8 8 7 7 7
10 15 13 13 11 12 12 11 11 13 13 15 15 15 12 11 10 9 8 8 8 8 8 8 8 8 9 9 9 9 10 10 10 10 10 10 9 9 9 9 8 8 8 8
10 15 13 15 11 11 12 11 10 11 11 13 13 14 9 8 8 8 8 8 8 8 9 9 10 10 10 10 10 10 11 11 10 10 10 10 10 10 10 9 9 9 9 9
12 14 15 18 13 13 15 13 11 11 11 12 15 12 9 10 9 8 8 8 9 10 11 11 12 12 11 11 11 12 11 11 11 11 10 10 10 10 10 10 10 10 10 10
12 15 14 17 15 21 13 10 10 12 11 11 11 10 9 9 8 7 7 10 11 11 12 12 12 12 12 11 12 12 12 12 12 12 11 11 11 11 11 11 10 10 10 10
10 14 16 18 19 15 13 12 12 12 14 10 10 9 9 10 10 10 10 10 12 12 12 13 13 13 12 12 12 12 13 13 12 12 12 11 11 11 11 11 11 10 10 9
10 11 15 16 19 21 14 10 8 9 16 9 9 10 9 8 12 12 11 12 12 12 12 12 12 13 13 13 13 13 13 12 12 11 11 11 11 11 11 11 10 9 9 9
15 14 16 17 18 15 10 9 8 15 15 8 8 9 8 10 10 11 11 12 11 12 12 12 13 14 14 13 12 12 11 12 11 11 11 11 12 11 10 10 10 10 10 9
15 16 17 16 17 20 8 9 12 10 8 8 8 10 11 11 11 12 11 12 11 12 12 12 14 14 14 13 12 11 11 11 11 11 11 11 11 10 10 10 10 10 10 11
16 13 15 14 14 9 8 9 7 7 9 9 10 10 10 11 12 11 11 11 12 12 13 13 13 14 13 12 12 12 12 11 11 11 11 11 11 11 10 11 11 11 11 11
10 9 12 12 10 10 9 9 8 8 9 9 9 10 10 11 11 11 11 11 11 12 13 12 13 13 14 13 12 12 11 11 11 11 11 11 12 11 12 12 12 12 12 12
10 10 12 12 11 10 10 9 9 10 9 10 9 10 10 11 11 11 11 12 12 13 13 13 13 13 13 13 13 12 11 11 12 11 11 12 12 12 13 13 12 12 12 12
9 11 12 13 10 11 11 10 9 10 11 10 11 12 11 12 13 13 13 13 13 13 13 13 13 13 13 13 13 12 11 11 12 12 12 12 12 13 13 13 13 12 11 11